Weather History for KOWD - November, 2012

Change the Weather History Date:

Sunday, November 25, 2012

  Actual Average Record
Temperature  
Mean Temperature 32 °F -  
Max Temperature 39 °F 46 °F 64 °F (2001)
Min Temperature 25 °F 27 °F 7 °F (2000)
Degree Days  
Heating Degree Days 33    
Moisture  
Dew Point 17 °F    
Average Humidity 52    
Maximum Humidity 75    
Minimum Humidity 39    
Precipitation  
Precipitation 0.00 in - - ()
Sea Level Pressure  
Sea Level Pressure 29.78 in    
Wind  
Wind Speed 10 mph (West)    
Max Wind Speed 18 mph    
Max Gust Speed 29 mph    
Visibility 10 miles    
Events      
Averages and records for this station are not official NWS values.
T = Trace of Precipitation, MM = Missing Value Source: NWS Daily Summary

Daily Weather History Graph

Daily Weather History Graph

Search for Another Location

Airport or City:

Trip Planner

Search our weather history database for the weather conditions in past years. The results will help you decide how hot, cold, wet, or windy it might be!

Date:

Astronomy

Nov. 25, 2012 Rise Set
Actual Time 6:47 AM EST 4:15 PM EST
Civil Twilight 6:16 AM EST 4:46 PM EST
Nautical Twilight 5:42 AM EST 5:21 PM EST
Astronomical Twilight 5:08 AM EST 5:54 PM EST
Moon 2:32 PM EST (11/25) 3:56 AM EST (11/25)
Length of Visible Light 10h 30m
Length of Day
9h 28m
Waxing Gibbous, 93% of the Moon is Illuminated
Nov 25
Waxing Gibbous
Nov 28
Full
Dec 6
Last Quarter
Dec 13
New
Dec 20
First Quarter

Hourly Weather History & Observations

Time (EST) Temp. Windchill Dew Point Humidity Pressure Visibility Wind Dir Wind Speed Gust Speed Precip Events Conditions
12:53 AM 32.0 °F 24.2 °F 15.1 °F 50% 29.68 in 10.0 mi West 9.2 mph - N/A   Clear
1:53 AM 32.0 °F - 15.1 °F 50% 29.70 in 10.0 mi North - - N/A   Clear
2:53 AM 32.0 °F 24.2 °F 14.0 °F 48% 29.71 in 10.0 mi West 9.2 mph - N/A   Clear
3:53 AM 32.0 °F 22.1 °F 14.0 °F 48% 29.72 in 10.0 mi West 13.8 mph 17.3 mph N/A   Clear
4:53 AM 30.9 °F 22.2 °F 15.1 °F 52% 29.74 in 10.0 mi West 10.4 mph - N/A   Clear
5:53 AM 30.0 °F 22.4 °F 15.1 °F 54% 29.75 in 10.0 mi West 8.1 mph - N/A   Clear
6:53 AM 30.0 °F 21.1 °F 15.1 °F 54% 29.78 in 10.0 mi West 10.4 mph - N/A   Clear
7:53 AM 33.1 °F 23.9 °F 14.0 °F 46% 29.80 in 10.0 mi West 12.7 mph 18.4 mph N/A   Clear
8:53 AM 34.0 °F 26.0 °F 15.1 °F 46% 29.79 in 10.0 mi West 10.4 mph 19.6 mph N/A   Clear
9:53 AM 37.0 °F 27.7 °F 16.0 °F 42% 29.79 in 10.0 mi West 16.1 mph 27.6 mph N/A   Clear
10:53 AM 37.0 °F 27.7 °F 15.1 °F 41% 29.77 in 10.0 mi West 16.1 mph 25.3 mph N/A   Clear
11:53 AM 37.9 °F 28.2 °F 15.1 °F 39% 29.75 in 10.0 mi WNW 18.4 mph 28.8 mph N/A   Clear
12:53 PM 39.0 °F 31.4 °F 16.0 °F 39% 29.74 in 10.0 mi WNW 12.7 mph 23.0 mph N/A   Clear
1:53 PM 39.0 °F 32.3 °F 16.0 °F 39% 29.75 in 10.0 mi West 10.4 mph 27.6 mph N/A   Scattered Clouds
2:53 PM 37.9 °F 30.0 °F 17.1 °F 43% 29.75 in 10.0 mi West 12.7 mph 27.6 mph N/A   Mostly Cloudy
3:53 PM 37.0 °F 27.4 °F 18.0 °F 46% 29.77 in 10.0 mi West 17.3 mph 28.8 mph N/A   Overcast
4:53 PM 36.0 °F 30.3 °F 19.0 °F 50% 29.79 in 10.0 mi West 6.9 mph - N/A   Overcast
5:53 PM 35.1 °F 27.9 °F 19.0 °F 52% 29.81 in 10.0 mi West 9.2 mph - N/A   Clear
6:53 PM 33.1 °F - 19.0 °F 56% 29.83 in 10.0 mi Calm Calm - N/A   Clear
7:53 PM 27.0 °F - 19.0 °F 72% 29.85 in 10.0 mi Calm Calm - N/A   Clear
8:53 PM 25.0 °F - 18.0 °F 75% 29.86 in 10.0 mi Calm Calm - N/A   Clear
9:53 PM 30.0 °F 25.2 °F 19.9 °F 66% 29.86 in 10.0 mi SSW 4.6 mph - N/A   Mostly Cloudy
10:53 PM 30.9 °F 27.5 °F 19.9 °F 64% 29.87 in 10.0 mi WSW 3.5 mph - N/A   Scattered Clouds
11:53 PM 32.0 °F 26.4 °F 21.9 °F 66% 29.88 in 10.0 mi WSW 5.8 mph - N/A   Mostly Cloudy